Location: A O Calhoun Middle School
(33.2198°N, 97.1397°W)
Time: 09:30:44
(UTC+00:00)

Cosmos 1538 Rocket - Pass Details

Date: 08 July 2022
Orbit: 752 x 791 km, 74.0° (Epoch: 13 August)

Event Time Altitude Azimuth Distance (km) Brightness Sun altitude
Exits shadow 08:45:12 - 131° (SE) 2,743 6.8 -26.1°
Reaches altitude 10° 08:48:05 10° 104° (ESE) 2,295 6.7 -25.8°
Maximum altitude 08:48:58 10° 94° (E) 2,266 6.8 -25.7°
Drops below altitude 10° 08:49:51 10° 84° (E) 2,294 6.9 -25.6°
Sets 08:54:33 0° 45° (NE) 3,216 8.6 -25.0°
